Wind_Speed
32 31 30 30 31 30 25 21 21 22 20 18 17 16 14 11 9 9 12 15 19 23 26 30 33 33 32 30 29 28 26 24 23 22 21 21 21 21 21 21 22 22 22 23 23 24 24 23 22 21 21 20 21 21 21 22 23 23 22 22 23 24 24
33 33 31 31 31 30 27 23 23 23 21 19 18 17 15 12 10 11 14 16 19 23 26 30 34 34 32 30 29 27 25 24 23 21 20 21 21 22 22 22 23 23 23 23 24 24 23 22 21 21 21 20 20 21 21 21 22 23 23 22 22 23 24
34 35 34 33 31 31 28 25 24 23 21 20 18 18 16 13 11 13 16 17 19 22 25 30 34 35 33 31 29 27 25 23 22 20 20 20 21 21 22 22 23 24 24 24 24 23 22 21 20 19 20 20 20 21 21 21 22 22 22 22 22 22 23
34 34 35 34 31 31 29 27 25 23 22 20 19 19 17 15 14 15 16 18 19 22 25 29 34 35 34 32 30 28 25 23 21 20 19 20 20 21 22 22 23 23 24 24 23 22 21 20 19 18 18 19 19 20 21 21 22 22 21 21 21 21 22
35 33 35 35 32 31 30 28 26 23 22 21 20 20 20 17 16 16 17 18 19 21 24 29 33 35 34 32 30 28 26 23 21 20 19 20 20 21 22 23 23 23 23 23 22 22 21 19 17 17 18 19 18 19 21 21 22 22 21 20 20 20 21
35 33 32 34 33 31 29 29 28 25 23 23 22 21 21 20 18 18 19 19 20 21 24 29 32 34 35 33 31 28 26 23 21 20 20 21 21 22 23 22 22 22 22 22 22 21 19 17 17 18 19 19 18 19 20 20 21 22 20 20 20 20 22
30 32 29 30 31 31 30 30 29 27 26 26 24 23 23 22 20 20 20 20 20 21 24 28 31 34 34 33 31 28 26 24 22 21 21 21 22 22 22 21 21 21 21 20 20 19 18 17 18 18 19 19 18 19 20 18 19 21 19 18 19 19 21
22 27 27 27 28 30 31 31 31 29 29 28 26 26 25 24 22 22 22 21 21 22 25 28 31 33 34 33 31 29 26 24 23 22 21 21 21 22 21 21 21 21 20 19 19 18 17 17 18 18 19 19 18 20 21 18 18 19 19 19 19 20 20
17 21 23 24 26 29 31 31 32 31 30 30 28 27 27 25 24 24 23 21 22 23 25 28 31 33 35 33 31 28 26 24 22 21 21 21 21 21 22 23 23 22 21 19 19 18 17 18 18 18 19 19 19 20 21 19 17 17 19 20 21 22 22
17 19 23 24 25 28 30 32 33 32 31 31 30 29 28 26 26 25 23 22 22 23 25 27 29 33 34 33 31 28 25 23 22 21 21 21 21 22 23 24 25 24 23 21 19 18 18 19 19 19 19 20 21 20 20 19 18 16 18 20 22 23 23
16 18 23 26 26 26 28 30 31 30 31 32 32 30 29 28 26 25 24 22 22 24 26 27 29 32 34 32 30 27 24 22 22 22 22 22 23 23 24 24 24 24 24 22 21 20 20 20 20 20 21 22 22 21 19 19 18 18 18 20 23 24 25
17 18 20 24 26 27 27 28 29 29 32 34 33 31 30 28 27 26 24 22 23 24 26 27 29 32 33 31 28 25 22 22 22 22 23 23 24 24 24 23 23 24 24 24 23 22 22 21 20 20 21 23 24 23 21 19 19 19 20 22 24 26 28
20 21 21 23 26 28 29 29 29 30 33 34 33 31 29 27 27 26 24 23 23 24 25 27 30 32 31 29 26 23 21 21 22 22 23 24 24 24 23 21 21 22 23 24 25 24 23 22 21 20 20 22 24 25 23 20 20 21 22 23 25 27 30
21 24 25 26 27 29 29 29 29 32 34 34 32 31 28 27 27 25 24 23 24 24 25 27 30 31 29 26 24 22 20 20 22 23 24 25 24 22 21 19 20 21 22 24 25 24 23 23 23 21 19 20 23 26 25 22 21 22 23 25 26 29 31
23 25 27 28 28 28 29 30 31 33 34 33 31 30 28 27 26 25 24 24 24 24 25 28 30 29 27 24 22 21 19 20 22 24 25 24 22 21 20 18 19 21 23 25 25 23 22 22 23 22 19 18 21 26 26 24 23 23 24 26 28 30 31
24 26 28 29 29 29 29 30 31 31 32 31 30 28 27 26 25 24 23 23 23 23 25 28 28 27 26 23 21 20 19 19 22 24 24 22 21 20 19 18 20 22 24 24 24 23 23 22 22 22 19 18 21 25 27 25 24 24 24 26 29 31 31
26 26 27 29 31 30 29 30 30 30 30 29 28 27 26 25 24 23 22 21 22 23 26 27 27 26 25 22 21 20 19 19 22 24 23 22 21 20 18 18 21 23 24 24 23 23 23 22 22 20 19 18 21 25 26 25 24 24 25 27 29 30 30
26 26 26 28 30 31 30 29 29 28 28 27 26 25 24 24 22 20 19 21 22 24 25 25 25 25 24 21 20 20 20 22 24 25 24 23 23 20 18 19 21 23 24 24 22 22 22 22 21 19 19 19 20 23 24 25 25 25 25 27 29 30 30
24 24 24 25 28 30 30 29 28 26 25 24 23 23 23 22 19 17 19 21 22 23 24 23 24 25 23 21 20 20 22 24 24 25 25 24 22 21 20 19 20 22 23 24 23 21 21 21 20 19 19 19 19 20 22 24 25 25 25 26 28 29 29
23 23 24 25 25 27 29 29 27 24 22 21 21 22 22 19 17 17 19 21 21 22 22 23 25 24 22 21 21 21 23 24 24 25 25 23 22 22 21 20 21 22 23 23 22 22 21 20 19 19 19 19 20 19 20 22 23 23 23 25 27 28 27
22 23 24 24 24 26 29 29 25 22 21 21 22 23 20 17 17 19 20 20 21 21 22 23 24 23 22 21 21 22 24 24 25 25 24 22 22 22 22 22 22 23 23 22 22 22 21 20 19 19 18 18 20 19 19 20 21 22 23 24 26 27 26
20 22 23 24 25 27 28 26 23 20 20 22 23 22 17 17 19 19 19 20 20 21 22 23 23 21 20 20 21 23 24 25 26 26 24 23 24 23 23 23 24 25 24 23 23 22 22 21 21 20 19 17 18 18 18 19 20 20 21 23 25 27 26
15 18 20 23 23 22 21 21 20 20 21 23 22 18 17 19 19 17 18 21 22 21 22 22 21 19 19 20 21 23 25 26 27 27 26 26 26 25 25 25 25 25 25 25 24 22 22 21 21 22 22 20 18 17 17 17 19 19 20 22 24 25 25
11 12 16 21 21 19 19 19 20 21 23 22 19 17 19 20 18 17 20 22 22 21 21 20 20 19 20 22 22 23 26 28 28 28 28 28 28 27 27 27 25 25 25 25 23 21 22 22 20 20 20 20 20 19 18 18 17 18 20 22 23 23 23
8 9 12 16 17 17 17 18 21 22 21 19 17 19 20 19 18 21 23 22 21 21 21 20 19 20 23 24 23 25 27 28 28 28 29 29 29 29 29 28 26 26 26 26 25 23 24 24 23 22 21 19 18 18 18 18 17 17 20 22 23 23 22
8 8 9 12 14 14 15 17 19 18 17 17 19 20 20 20 22 24 24 22 21 21 22 21 21 23 26 26 25 27 28 29 29 29 29 30 29 29 30 30 29 28 28 28 27 27 27 27 27 26 24 22 19 17 17 17 18 19 20 22 23 22 21
8 6 7 10 11 12 13 14 14 14 16 18 19 19 21 22 24 24 22 21 22 23 23 23 25 27 29 28 28 29 29 30 30 29 29 31 30 29 30 31 31 30 31 31 30 29 29 29 28 27 25 24 22 19 17 16 17 18 19 21 22 21 20
8 7 8 9 9 9 10 11 13 15 17 18 18 20 22 23 22 21 20 22 24 25 26 27 29 32 33 31 31 30 29 29 29 28 29 31 31 30 31 31 30 29 31 32 31 29 28 28 27 26 24 23 22 21 20 18 16 15 17 20 21 20 19
9 9 9 8 8 9 10 12 14 16 17 17 19 21 22 21 21 21 23 24 25 26 29 30 32 35 36 34 33 32 30 29 28 27 28 30 30 30 31 31 29 29 30 30 30 29 27 26 27 25 24 23 22 22 22 19 15 15 18 20 20 20 19
11 10 9 9 10 11 12 14 15 16 17 19 22 22 21 22 23 24 26 26 24 26 31 33 35 37 37 35 34 33 32 32 30 28 28 29 30 31 32 32 30 30 30 30 30 28 26 26 25 24 22 21 21 22 22 20 16 16 17 18 19 19 18
11 10 10 11 12 13 14 15 15 17 19 21 23 23 23 25 25 26 27 28 27 29 32 34 36 37 36 34 33 33 33 33 31 29 28 29 31 32 33 33 33 32 31 31 30 28 26 25 24 22 20 19 20 21 21 20 18 16 16 17 18 19 18
10 10 11 12 12 13 15 16 16 18 20 22 24 24 25 27 27 28 29 30 31 32 33 35 37 36 34 33 33 34 34 33 31 31 30 31 32 34 35 35 34 34 33 31 29 27 25 24 22 20 19 19 20 20 18 18 18 17 16 17 18 19 19
11 12 12 13 13 14 15 16 17 19 22 24 26 27 28 30 30 30 31 32 33 33 34 35 34 33 33 33 34 36 36 33 32 32 32 33 34 35 36 36 35 33 31 30 28 26 23 22 21 20 20 20 19 18 16 17 18 17 17 17 18 19 19
12 12 12 13 13 14 15 16 18 20 23 26 28 28 30 31 32 33 32 32 32 34 34 33 32 32 34 35 35 36 34 33 33 33 34 34 35 34 35 36 35 34 32 29 26 24 21 20 21 20 20 20 19 17 16 17 17 17 17 17 17 18 17
12 12 13 13 14 15 16 17 19 21 24 26 29 30 32 33 33 33 31 30 31 33 33 32 32 34 35 35 35 34 32 32 33 34 34 35 36 35 35 34 34 35 34 30 25 22 20 19 20 19 19 19 18 17 16 17 17 17 17 17 16 16 15
12 13 15 15 16 16 17 19 21 23 25 27 29 31 33 33 32 31 30 29 29 31 31 32 32 33 34 35 34 33 33 34 35 35 34 35 36 35 34 32 32 32 31 26 21 19 18 18 18 18 17 17 17 17 17 17 17 16 16 16 16 16 15
15 16 17 17 17 18 19 21 23 25 26 28 29 30 31 31 31 30 29 28 28 29 31 32 32 32 34 35 34 33 34 34 35 36 36 35 33 32 31 30 29 26 22 19 17 17 17 17 17 16 16 16 17 17 17 17 17 17 16 16 15 15 15
16 17 18 19 20 21 23 24 26 27 27 28 28 28 28 28 27 27 27 27 28 30 31 31 32 33 34 35 35 35 34 33 34 35 35 33 30 29 28 28 25 20 15 14 14 14 15 15 16 16 15 15 16 16 17 17 17 16 15 14 14 14 14
Wind_Direction
225 223 219 218 217 216 217 220 217 212 211 213 221 231 239 251 271 296 310 318 326 335 344 347 347 344 339 334 330 326 322 317 313 311 309 308 309 311 314 317 318 319 319 320 320 322 326 327 327 328 328 326 324 321 320 318 315 313 307 300 296 293 290
221 225 222 220 219 217 215 218 220 217 214 217 226 237 244 254 270 289 303 313 322 333 342 347 347 346 341 336 332 328 323 318 314 313 310 310 311 313 317 319 320 320 321 321 322 324 328 329 329 330 330 327 324 323 321 320 318 316 313 308 304 300 296
214 220 222 221 220 218 216 217 222 222 219 221 232 243 248 256 270 285 298 309 319 330 340 346 347 347 343 338 334 329 324 318 314 311 309 310 312 314 318 320 320 320 320 321 322 324 327 329 329 328 326 324 322 321 320 318 318 315 312 310 307 304 301
213 216 218 220 221 219 217 218 223 225 224 226 238 247 250 258 269 281 294 304 315 327 338 344 346 347 345 339 334 330 325 318 313 309 308 310 312 316 318 318 319 319 318 320 322 324 325 326 327 325 323 322 320 319 319 318 317 314 310 308 305 303 302
219 217 215 216 219 219 219 220 224 228 229 231 239 248 252 259 267 277 289 300 310 322 334 341 344 346 345 340 334 330 326 320 314 311 310 311 314 316 317 317 317 317 317 320 321 322 324 324 324 323 321 322 321 319 319 318 318 315 309 305 302 299 298
224 220 215 213 215 218 220 221 225 230 233 235 241 248 254 258 264 274 284 295 306 318 330 337 341 345 344 339 334 329 326 322 317 314 312 314 317 318 318 318 319 319 319 321 320 320 322 320 320 321 321 321 320 318 319 319 319 316 311 306 303 298 297
229 225 219 214 214 217 219 222 225 231 235 237 241 246 252 257 262 272 281 292 303 314 325 333 338 342 342 339 334 329 326 323 319 316 315 317 320 320 320 320 321 321 320 320 319 317 318 316 316 318 318 318 316 315 320 321 319 319 314 308 305 302 301
228 229 227 221 219 219 220 222 226 230 235 240 243 245 251 257 261 269 278 289 300 310 321 330 335 339 340 337 333 328 326 323 320 318 318 321 323 322 322 322 322 322 319 318 317 314 313 311 312 313 314 315 311 312 321 324 320 321 318 311 309 309 308
219 223 227 227 226 223 222 223 226 230 237 242 245 246 250 255 259 267 276 286 297 307 319 326 331 335 337 335 331 327 325 323 321 320 321 323 324 323 322 320 319 319 316 314 312 310 308 306 306 308 308 310 310 311 319 323 320 320 317 314 314 314 315
225 219 220 222 225 225 224 224 227 232 238 243 245 245 249 254 258 266 275 284 295 305 314 321 326 330 333 331 328 325 324 323 323 324 324 324 323 321 320 318 317 317 315 314 312 308 306 304 304 305 305 308 310 310 313 316 319 319 314 314 316 315 315
237 229 224 221 222 224 225 226 230 234 238 242 243 244 248 253 259 265 273 283 294 302 309 316 321 326 329 328 325 323 323 324 325 326 325 324 323 321 319 317 316 316 315 316 314 311 309 307 304 303 303 306 306 305 306 309 314 316 314 314 316 315 315
234 231 229 228 226 225 226 229 232 235 237 240 242 243 247 253 258 264 272 281 290 298 304 312 319 324 325 324 323 321 320 323 325 326 325 324 322 320 318 316 316 314 314 314 315 314 313 311 307 302 301 304 304 301 301 304 309 313 314 315 314 314 314
235 227 224 226 227 226 226 229 233 234 236 239 241 243 247 253 257 263 272 280 287 294 300 309 318 322 323 322 320 319 319 321 324 326 325 323 321 320 319 319 315 312 311 313 315 317 314 311 308 302 297 300 301 298 297 300 304 308 311 312 313 312 313
241 233 225 222 223 224 226 229 231 233 235 238 239 242 247 251 255 263 272 279 285 290 298 309 316 319 320 320 317 317 318 319 323 325 324 322 321 320 322 320 313 309 310 312 315 317 315 309 307 304 298 297 297 295 295 297 301 306 309 311 310 309 311
242 237 232 227 223 223 225 228 231 233 236 237 239 243 247 250 256 264 271 278 284 289 298 309 314 317 319 317 314 315 316 318 322 325 325 324 321 321 324 319 309 309 312 314 316 318 315 310 310 308 303 299 297 295 294 295 299 305 307 307 306 305 308
245 240 237 234 229 226 226 228 231 235 237 238 240 244 247 251 257 265 271 277 282 290 301 310 312 315 318 315 312 313 314 317 323 325 325 323 321 322 323 315 308 309 313 317 320 321 319 315 315 312 306 301 296 293 293 296 301 305 305 304 303 303 308
248 245 241 237 233 231 230 229 231 236 238 238 241 244 246 252 259 264 270 277 285 295 305 309 310 315 317 312 310 312 315 317 323 326 326 323 321 322 320 313 311 312 315 319 322 322 320 319 316 312 308 304 298 295 296 297 300 304 304 303 302 303 308
246 245 245 242 236 232 232 232 234 237 238 238 240 244 248 253 258 264 273 282 291 302 307 308 309 314 315 310 308 311 314 318 323 325 324 322 321 322 320 314 314 315 314 317 321 322 320 319 317 312 309 306 301 299 299 299 300 303 304 304 303 304 310
243 242 244 245 238 230 230 235 237 237 238 238 240 246 249 252 258 267 278 288 298 305 307 307 309 311 311 308 308 311 313 317 322 322 322 321 320 321 322 318 315 315 314 316 320 322 321 319 316 312 308 303 301 301 301 301 302 305 306 306 306 307 312
243 243 244 244 238 226 225 232 236 235 234 235 239 244 246 250 261 273 283 294 304 308 308 308 308 309 308 306 307 312 313 316 321 321 321 321 319 319 320 316 313 314 313 314 317 319 319 317 314 312 308 303 301 301 300 300 302 306 309 310 311 312 314
243 244 244 243 237 225 220 225 230 229 228 232 238 241 243 253 270 280 290 302 310 311 309 308 307 307 306 305 307 310 312 315 320 322 321 319 318 318 316 313 312 311 310 311 313 314 315 313 312 313 310 305 303 303 302 301 303 307 311 312 313 315 317
241 241 241 241 237 227 218 217 222 226 228 234 238 238 245 263 275 283 296 310 315 314 310 307 305 305 305 305 307 308 311 314 318 320 319 317 317 317 313 310 309 308 307 308 308 310 311 311 311 311 307 302 301 302 302 302 305 309 312 313 315 317 320
237 239 240 238 232 219 208 209 216 223 229 234 236 241 255 269 277 288 305 316 317 313 309 306 304 304 303 303 305 307 310 313 316 317 316 315 315 315 312 309 307 307 306 306 306 308 308 309 310 308 306 304 302 301 302 303 307 312 315 316 317 318 321
227 231 236 234 221 206 201 206 214 223 230 234 239 252 264 271 282 298 312 317 315 308 305 304 302 302 300 301 304 307 309 310 312 313 313 313 314 314 311 308 306 305 304 304 305 304 302 304 303 300 301 303 302 303 305 305 307 315 318 319 319 320 321
207 207 220 223 216 210 211 213 218 226 233 238 247 260 269 279 294 305 311 315 312 306 303 301 298 297 298 300 304 306 305 305 306 308 309 310 311 312 312 309 307 306 305 306 306 303 306 309 306 300 299 299 300 302 303 304 309 316 319 320 320 321 324
194 195 202 207 211 215 217 219 223 227 233 245 256 266 279 291 299 303 308 309 305 302 300 297 293 291 294 299 302 301 299 300 301 302 303 305 308 311 311 309 307 306 305 305 305 304 308 311 310 306 303 301 300 301 302 307 317 320 318 319 320 323 327
201 202 195 198 207 214 216 221 225 230 242 255 265 276 287 293 295 299 301 297 293 293 293 291 289 289 291 295 296 295 295 298 298 298 300 304 309 312 309 307 309 309 306 306 305 303 305 307 308 307 304 302 302 303 305 311 316 316 316 317 319 324 330
201 197 194 199 207 211 217 223 230 240 253 262 271 281 286 287 288 291 291 287 285 288 288 285 285 286 287 289 290 290 292 297 297 296 300 306 310 311 307 305 309 311 309 306 304 303 303 305 306 304 301 301 304 305 304 303 304 312 318 318 318 322 329
195 197 200 206 212 216 224 233 242 252 261 266 274 281 283 283 285 286 287 288 286 284 284 283 281 282 284 288 289 287 290 296 297 297 300 304 307 306 302 301 305 308 308 307 304 302 302 303 303 299 295 299 304 304 301 298 307 325 326 318 317 320 325
198 203 207 214 222 229 236 244 252 260 265 270 278 281 279 279 284 286 288 290 286 277 277 278 279 281 284 288 288 286 289 295 297 296 299 302 303 301 298 296 298 301 303 306 306 303 302 302 300 295 294 300 305 304 300 302 318 336 330 319 317 319 323
202 206 214 223 230 237 245 251 256 262 269 275 280 281 277 277 281 283 285 285 281 274 273 274 278 282 285 286 286 285 289 295 295 294 298 300 300 299 296 295 295 294 296 301 305 304 302 300 297 294 296 303 305 303 303 307 318 329 328 321 320 320 324
207 215 225 235 240 244 249 255 261 267 272 275 275 274 272 271 275 279 280 279 277 275 273 273 277 281 283 283 284 284 288 292 292 293 297 299 298 299 299 297 295 293 293 297 301 302 299 296 295 296 299 301 302 303 306 310 318 326 328 324 324 324 326
214 223 230 237 243 248 252 258 264 268 269 269 269 269 268 269 274 278 279 278 276 273 272 274 276 278 280 281 281 283 287 290 289 291 296 298 298 301 301 299 298 296 294 295 297 298 296 292 292 294 297 299 301 304 308 313 319 325 325 323 323 322 323
226 231 235 239 243 248 253 258 263 266 267 268 269 270 270 272 277 280 281 279 275 272 272 273 274 276 279 278 279 283 287 288 289 292 296 298 299 301 301 301 302 300 296 294 293 293 292 290 289 291 294 298 302 306 311 316 319 321 320 319 320 319 319
235 237 242 245 246 250 257 262 266 268 269 270 271 272 273 275 278 280 281 278 274 272 273 274 274 276 277 277 280 285 287 289 292 295 298 301 302 302 301 302 302 298 293 291 289 287 287 286 287 289 292 296 300 305 310 315 317 318 318 317 318 319 320
243 247 249 250 253 259 266 269 271 272 272 272 273 274 275 277 277 277 276 275 273 272 272 273 275 277 277 279 283 287 289 292 295 297 300 302 303 304 304 303 304 301 294 288 283 280 282 283 283 285 289 293 298 304 309 313 316 317 319 319 319 323 324
260 258 255 256 262 268 273 275 276 277 276 276 276 275 275 275 275 274 273 272 271 270 270 272 274 277 279 282 286 288 291 295 297 298 301 302 301 302 302 304 309 309 296 283 280 281 281 280 277 279 284 290 297 304 309 313 316 318 322 325 325 326 328
266 262 260 263 268 272 276 279 281 281 280 278 276 275 274 274 273 272 270 269 268 268 270 272 274 277 280 283 286 289 292 295 296 297 299 298 298 301 301 304 315 318 298 280 282 284 281 277 275 276 281 286 294 304 308 311 316 321 324 329 331 332 334
Height
3198 3199 3199 3200 3201 3202 3203 3205 3206 3206 3206 3207 3207 3207 3207 3207 3207 3207 3206 3206 3205 3203 3202 3199 3197 3195 3192 3189 3187 3185 3183 3181 3179 3178 3176 3175 3174 3172 3171 3170 3169 3168 3167 3166 3164 3163 3162 3160 3159 3158 3157 3155 3154 3152 3151 3149 3147 3146 3145 3144 3143 3142 3141
3194 3195 3196 3197 3198 3200 3201 3202 3203 3204 3204 3205 3205 3205 3205 3205 3205 3205 3204 3204 3203 3201 3199 3197 3195 3193 3190 3187 3185 3183 3181 3179 3177 3176 3174 3173 3171 3170 3169 3168 3167 3166 3164 3163 3162 3160 3159 3157 3156 3155 3154 3152 3151 3149 3148 3147 3145 3144 3142 3141 3140 3139 3138
3190 3191 3193 3194 3196 3197 3199 3200 3201 3202 3202 3203 3203 3203 3203 3203 3203 3203 3202 3201 3200 3199 3197 3195 3193 3190 3188 3185 3183 3181 3179 3177 3176 3174 3173 3171 3170 3169 3167 3166 3165 3163 3162 3161 3160 3158 3157 3155 3154 3153 3152 3150 3149 3147 3146 3145 3143 3142 3140 3139 3137 3136 3135
3187 3188 3189 3191 3193 3195 3196 3198 3199 3200 3200 3200 3200 3201 3201 3201 3201 3201 3200 3199 3199 3197 3196 3194 3192 3189 3186 3183 3181 3179 3177 3175 3174 3173 3171 3170 3169 3167 3166 3165 3164 3162 3160 3159 3158 3156 3155 3153 3152 3151 3150 3149 3147 3146 3144 3143 3141 3139 3138 3137 3135 3134 3133
3184 3185 3186 3189 3191 3192 3193 3195 3196 3197 3198 3198 3198 3199 3199 3199 3199 3199 3198 3197 3197 3196 3194 3192 3190 3187 3185 3182 3179 3177 3175 3173 3172 3171 3169 3168 3166 3165 3164 3163 3162 3160 3158 3157 3155 3154 3153 3151 3150 3149 3148 3147 3146 3144 3142 3140 3138 3136 3135 3134 3133 3132 3130
3182 3183 3184 3186 3188 3189 3191 3193 3194 3195 3196 3196 3196 3196 3196 3196 3197 3196 3196 3196 3195 3194 3192 3191 3189 3186 3183 3180 3178 3176 3174 3172 3170 3168 3167 3165 3164 3163 3162 3160 3159 3157 3156 3155 3153 3152 3150 3149 3148 3147 3146 3145 3143 3142 3140 3138 3136 3134 3132 3131 3130 3129 3127
3180 3181 3182 3184 3185 3187 3189 3190 3192 3193 3193 3193 3194 3194 3194 3194 3194 3194 3194 3194 3193 3192 3190 3189 3187 3184 3182 3179 3177 3174 3172 3170 3168 3166 3165 3163 3161 3160 3159 3158 3156 3155 3154 3152 3151 3150 3148 3147 3146 3145 3143 3142 3141 3139 3138 3136 3134 3132 3130 3129 3128 3126 3125
3178 3180 3181 3182 3183 3185 3186 3188 3189 3190 3191 3191 3191 3191 3191 3192 3192 3192 3192 3191 3190 3189 3188 3187 3185 3183 3180 3178 3175 3173 3170 3168 3166 3165 3163 3161 3159 3158 3157 3155 3154 3153 3151 3150 3149 3148 3146 3145 3144 3143 3141 3140 3138 3136 3134 3133 3131 3129 3127 3126 3125 3123 3121
3177 3178 3180 3181 3182 3182 3183 3185 3186 3187 3188 3188 3189 3189 3189 3189 3190 3190 3190 3189 3188 3187 3187 3184 3182 3180 3178 3176 3173 3171 3169 3167 3165 3163 3161 3159 3158 3156 3155 3153 3152 3151 3150 3148 3147 3146 3144 3143 3141 3140 3139 3137 3135 3133 3131 3130 3129 3127 3125 3123 3121 3119 3118
3175 3176 3177 3178 3180 3180 3181 3182 3183 3184 3185 3185 3186 3186 3187 3187 3188 3188 3188 3187 3186 3185 3185 3183 3181 3179 3177 3174 3172 3169 3167 3165 3163 3161 3159 3158 3156 3155 3153 3151 3150 3148 3147 3146 3145 3143 3142 3140 3139 3138 3136 3134 3132 3130 3128 3126 3125 3125 3123 3120 3118 3116 3115
3174 3174 3175 3176 3177 3177 3178 3179 3180 3181 3182 3183 3183 3184 3184 3185 3185 3185 3185 3184 3184 3183 3182 3181 3179 3177 3175 3173 3170 3167 3165 3163 3161 3159 3158 3156 3154 3153 3151 3149 3148 3146 3145 3143 3142 3141 3139 3138 3136 3135 3133 3132 3130 3128 3126 3124 3122 3121 3120 3118 3116 3114 3112
3171 3172 3173 3173 3174 3175 3176 3176 3177 3178 3179 3180 3181 3182 3182 3182 3183 3183 3182 3182 3182 3181 3180 3178 3177 3175 3173 3171 3168 3165 3163 3161 3159 3158 3156 3154 3152 3151 3149 3147 3146 3144 3143 3141 3139 3138 3137 3135 3134 3132 3131 3129 3127 3125 3124 3122 3120 3119 3117 3115 3113 3111 3109
3169 3169 3170 3170 3171 3172 3173 3173 3174 3175 3176 3177 3178 3179 3179 3180 3180 3180 3180 3180 3179 3179 3178 3176 3174 3173 3171 3169 3166 3164 3162 3160 3158 3156 3154 3152 3150 3148 3147 3146 3144 3142 3141 3139 3137 3135 3134 3133 3131 3130 3128 3127 3125 3123 3121 3119 3118 3116 3115 3113 3111 3109 3106
3167 3167 3167 3167 3168 3169 3169 3170 3172 3172 3173 3174 3175 3176 3177 3177 3177 3177 3178 3177 3177 3177 3175 3174 3172 3170 3168 3166 3164 3162 3160 3158 3156 3155 3152 3150 3148 3146 3145 3144 3143 3140 3139 3137 3135 3133 3131 3130 3128 3127 3126 3124 3123 3121 3119 3117 3116 3114 3112 3110 3108 3106 3103
3164 3164 3165 3165 3165 3166 3167 3168 3169 3169 3170 3172 3173 3174 3174 3174 3175 3175 3175 3175 3175 3174 3173 3171 3169 3168 3166 3164 3162 3160 3158 3156 3154 3152 3150 3148 3146 3144 3143 3142 3140 3138 3136 3135 3133 3131 3129 3127 3125 3123 3123 3122 3120 3118 3116 3115 3113 3112 3110 3108 3105 3103 3101
3161 3161 3162 3162 3163 3163 3164 3165 3166 3167 3168 3169 3170 3171 3172 3172 3173 3173 3173 3173 3172 3172 3170 3168 3167 3165 3163 3161 3159 3158 3156 3154 3153 3150 3148 3146 3144 3142 3142 3140 3138 3136 3134 3132 3130 3128 3126 3124 3123 3121 3120 3120 3118 3115 3113 3112 3111 3109 3108 3105 3103 3100 3098
3158 3158 3158 3159 3160 3161 3161 3162 3163 3164 3165 3166 3168 3169 3169 3170 3170 3171 3171 3170 3170 3169 3167 3165 3164 3162 3160 3159 3157 3155 3154 3152 3150 3148 3146 3144 3142 3140 3140 3138 3135 3133 3131 3129 3128 3126 3124 3122 3120 3119 3118 3117 3116 3113 3111 3109 3108 3107 3105 3102 3100 3097 3095
3154 3154 3155 3155 3156 3157 3158 3159 3160 3161 3162 3163 3165 3166 3167 3167 3168 3168 3168 3168 3167 3165 3164 3162 3160 3159 3158 3156 3154 3153 3151 3150 3148 3146 3144 3142 3140 3138 3137 3136 3133 3131 3129 3127 3126 3124 3123 3121 3118 3117 3116 3115 3113 3112 3109 3107 3105 3104 3102 3100 3097 3094 3092
3150 3150 3151 3152 3152 3154 3155 3156 3157 3158 3159 3161 3162 3163 3164 3165 3165 3166 3166 3165 3164 3162 3161 3159 3158 3156 3155 3153 3152 3150 3149 3147 3145 3143 3142 3140 3138 3136 3135 3133 3131 3129 3127 3125 3123 3122 3120 3119 3117 3115 3114 3112 3111 3109 3107 3105 3103 3102 3100 3097 3094 3092 3090
3147 3147 3147 3148 3148 3150 3151 3153 3154 3155 3156 3158 3160 3161 3161 3162 3163 3163 3162 3161 3160 3159 3157 3156 3155 3153 3152 3151 3149 3147 3146 3144 3143 3141 3139 3137 3135 3134 3132 3130 3128 3127 3125 3123 3121 3120 3118 3117 3115 3113 3111 3109 3108 3106 3105 3102 3101 3099 3097 3095 3092 3090 3087
3143 3144 3144 3144 3145 3146 3147 3149 3151 3152 3154 3155 3156 3157 3159 3160 3160 3160 3159 3158 3157 3156 3154 3153 3152 3150 3149 3148 3146 3145 3143 3141 3140 3139 3137 3135 3133 3131 3129 3127 3125 3124 3123 3121 3120 3118 3116 3115 3113 3111 3109 3107 3105 3104 3102 3100 3098 3097 3095 3093 3090 3088 3085
3140 3141 3141 3141 3142 3142 3144 3146 3148 3150 3151 3152 3153 3155 3156 3157 3157 3157 3156 3155 3154 3153 3151 3150 3149 3148 3146 3145 3144 3142 3140 3139 3137 3136 3134 3132 3130 3129 3127 3125 3123 3121 3120 3119 3118 3116 3114 3112 3110 3108 3107 3105 3103 3101 3099 3097 3095 3094 3093 3090 3088 3085 3083
3138 3138 3139 3139 3139 3141 3142 3144 3146 3147 3149 3150 3151 3153 3154 3154 3154 3154 3153 3152 3151 3150 3148 3147 3146 3145 3144 3143 3141 3139 3138 3136 3135 3133 3131 3129 3128 3126 3124 3122 3120 3119 3117 3116 3115 3113 3111 3109 3108 3106 3104 3103 3101 3099 3097 3094 3093 3091 3090 3088 3085 3083 3080
3136 3137 3137 3137 3138 3139 3140 3142 3144 3145 3146 3148 3149 3150 3151 3151 3151 3150 3150 3149 3148 3147 3145 3145 3144 3143 3141 3140 3138 3137 3135 3133 3132 3130 3128 3127 3125 3124 3122 3120 3118 3116 3115 3113 3112 3110 3107 3106 3105 3103 3101 3099 3098 3096 3094 3092 3090 3088 3087 3085 3082 3080 3078
3135 3136 3136 3136 3137 3138 3139 3141 3142 3143 3144 3146 3147 3148 3148 3147 3147 3147 3146 3146 3145 3144 3143 3142 3141 3140 3138 3137 3135 3134 3132 3131 3129 3127 3125 3124 3123 3121 3119 3117 3116 3114 3112 3111 3109 3107 3104 3103 3102 3100 3098 3096 3095 3093 3092 3090 3087 3085 3084 3082 3080 3078 3076
3134 3134 3135 3136 3137 3137 3138 3139 3140 3141 3143 3144 3145 3144 3144 3144 3143 3143 3143 3142 3142 3140 3139 3138 3137 3136 3135 3134 3132 3131 3130 3128 3126 3124 3122 3120 3119 3118 3116 3114 3113 3111 3109 3108 3106 3104 3102 3101 3099 3098 3096 3094 3092 3090 3089 3087 3084 3082 3081 3080 3077 3075 3074
3133 3133 3134 3134 3135 3136 3136 3137 3139 3140 3141 3142 3141 3141 3141 3140 3140 3139 3139 3138 3137 3136 3135 3134 3133 3132 3131 3130 3129 3128 3126 3124 3123 3121 3119 3117 3115 3114 3113 3111 3110 3108 3106 3104 3102 3101 3100 3098 3096 3094 3093 3091 3090 3088 3086 3085 3082 3080 3079 3077 3075 3073 3071
3131 3131 3132 3132 3133 3134 3135 3136 3137 3138 3138 3138 3138 3138 3138 3137 3136 3136 3135 3134 3133 3132 3132 3131 3129 3128 3127 3126 3126 3124 3123 3121 3120 3118 3116 3114 3112 3110 3109 3108 3107 3105 3103 3100 3099 3097 3096 3094 3092 3091 3090 3088 3087 3085 3084 3082 3080 3078 3076 3074 3073 3071 3069
3129 3129 3130 3130 3131 3132 3133 3134 3135 3135 3135 3135 3135 3135 3135 3134 3133 3132 3131 3131 3130 3129 3128 3127 3125 3123 3122 3122 3122 3120 3119 3118 3117 3115 3113 3111 3109 3107 3106 3105 3104 3102 3100 3098 3095 3093 3092 3091 3089 3088 3087 3086 3084 3083 3081 3079 3077 3074 3072 3071 3070 3068 3067
3126 3127 3128 3128 3129 3130 3131 3131 3132 3132 3132 3132 3132 3132 3132 3131 3131 3129 3128 3127 3127 3126 3124 3123 3121 3119 3119 3119 3118 3116 3115 3114 3113 3111 3110 3108 3106 3104 3103 3101 3100 3099 3097 3095 3092 3090 3089 3087 3086 3085 3084 3082 3081 3080 3078 3075 3073 3072 3070 3069 3068 3066 3065
3124 3125 3125 3126 3127 3127 3128 3129 3129 3129 3129 3129 3129 3129 3129 3128 3127 3126 3125 3124 3124 3123 3121 3119 3118 3116 3116 3115 3114 3112 3111 3110 3108 3107 3106 3104 3102 3101 3099 3098 3096 3095 3093 3091 3089 3087 3085 3084 3082 3082 3080 3079 3078 3077 3075 3073 3071 3070 3068 3067 3066 3064 3063
3121 3122 3123 3123 3124 3125 3125 3126 3126 3126 3126 3126 3126 3126 3125 3124 3123 3122 3122 3120 3119 3118 3117 3115 3114 3114 3113 3112 3110 3108 3107 3106 3104 3103 3102 3101 3099 3097 3095 3093 3092 3090 3089 3087 3086 3084 3082 3081 3079 3078 3077 3076 3075 3074 3072 3070 3069 3068 3067 3065 3064 3062 3061
3119 3120 3120 3120 3121 3122 3122 3123 3123 3123 3123 3122 3122 3122 3121 3120 3119 3119 3117 3115 3114 3113 3112 3111 3110 3110 3109 3108 3106 3104 3103 3102 3101 3099 3098 3096 3095 3093 3090 3088 3087 3085 3084 3083 3082 3080 3079 3078 3076 3075 3075 3073 3073 3072 3070 3068 3067 3066 3065 3063 3062 3060 3059
3117 3118 3118 3118 3118 3119 3119 3120 3119 3119 3119 3118 3118 3118 3117 3116 3115 3114 3112 3111 3109 3108 3107 3107 3107 3106 3104 3103 3101 3100 3099 3098 3096 3095 3094 3092 3091 3090 3087 3083 3081 3080 3079 3078 3078 3077 3076 3075 3073 3073 3072 3071 3070 3069 3068 3066 3065 3064 3063 3061 3060 3059 3057
3115 3115 3115 3115 3115 3115 3116 3116 3116 3115 3115 3114 3114 3113 3112 3111 3110 3109 3107 3106 3105 3103 3103 3102 3102 3101 3100 3098 3097 3096 3095 3094 3092 3091 3090 3088 3086 3084 3083 3080 3078 3075 3073 3073 3073 3073 3072 3071 3071 3070 3069 3068 3067 3066 3065 3064 3063 3062 3061 3059 3058 3057 3055
3112 3113 3113 3113 3112 3112 3113 3113 3112 3112 3111 3110 3109 3108 3107 3106 3105 3104 3102 3101 3100 3099 3098 3098 3097 3097 3095 3094 3093 3092 3091 3090 3088 3087 3086 3084 3082 3079 3077 3075 3073 3070 3067 3067 3069 3069 3069 3068 3068 3068 3067 3066 3065 3064 3063 3062 3061 3060 3059 3057 3056 3055 3053
3109 3110 3110 3109 3109 3109 3109 3109 3108 3107 3106 3105 3104 3103 3102 3100 3100 3099 3098 3097 3096 3095 3094 3094 3093 3093 3092 3090 3089 3088 3087 3086 3084 3082 3081 3080 3078 3076 3073 3071 3069 3066 3064 3064 3065 3066 3065 3065 3065 3065 3064 3063 3062 3062 3061 3059 3058 3057 3056 3055 3054 3053 3052
3106 3106 3106 3106 3106 3105 3105 3104 3103 3102 3101 3100 3099 3098 3097 3096 3095 3094 3093 3092 3092 3091 3090 3090 3089 3089 3088 3086 3085 3084 3084 3083 3081 3079 3077 3075 3074 3073 3070 3067 3066 3063 3061 3061 3062 3062 3062 3062 3062 3062 3062 3061 3060 3059 3058 3057 3056 3055 3054 3053 3052 3051 3050